Date String (YYYY-MM-DD hh:mm:ss) UTC,Instrument flags,Ambient pressure (hPa),Sample flow (lpm),Bypass flow (lpm),Sample temperature (°C),Ambient temperature (°C),ASC tube jacket temperature (°C),LED temperature (°C),Box temperature (°C),Sample RH (%),Span deviation,Mass concentration (μg/m³),Mass concentration (μg/m³),Mass concentration (μg/m³)
DateTimeUTC,F1_M11,P_M11,Q1_M11,Q2_M11,T1_M11,T2_M11,T3_M11,T4_M11,T5_M11,U1_M11,ZSPAN_M11,X2_M11,X0_M11,X1_M11
2022-12-23 11:00:00,,0830.6,4.94,0.00,21.8,20.8,00.0,30.6,23.3,02.3,0002.8,0004.84,0009.31,0004.33
2022-12-23 11:01:00,,0830.4,5.01,0.00,21.7,20.2,00.0,30.5,23.2,02.4,0003.1,0004.85,0009.62,0004.36
2022-12-23 11:02:00,,0830.5,5.03,0.00,21.7,20.7,00.0,30.5,23.2,02.4,0003.2,0004.85,0009.53,0004.37
2022-12-23 11:03:00,,0830.6,4.97,0.00,21.8,21.6,00.0,30.5,23.5,02.3,0003.4,0004.87,0009.60,0004.39
2022-12-23 11:04:00,,0830.6,5.02,0.00,21.9,22.2,00.0,30.5,23.7,02.3,0003.3,0004.89,0010.15,0004.42
2022-12-23 11:05:00,,0830.5,5.02,0.00,21.9,21.7,00.0,30.6,23.6,02.3,0003.2,0004.87,0009.79,0004.42
2022-12-23 11:06:00,,0830.4,4.96,0.00,21.8,21.0,00.0,30.6,23.4,02.3,0003.1,0004.88,0009.34,0004.44
2022-12-23 11:07:00,,0830.4,5.02,0.00,21.7,20.4,00.0,30.6,23.2,02.3,0003.0,0004.86,0009.14,0004.46
2022-12-23 11:08:00,,0830.6,5.02,0.00,21.7,20.5,00.0,30.5,23.2,02.3,0003.1,0004.87,0009.11,0004.48
2022-12-23 11:09:00,,0830.6,4.95,0.00,21.8,21.4,00.0,30.5,23.5,02.3,0002.8,0004.83,0008.99,0004.50
2022-12-23 11:10:00,,0830.6,5.02,0.00,21.9,22.1,00.0,30.5,23.7,02.3,0002.6,0004.83,0009.15,0004.50
2022-12-23 11:11:00,,0830.5,5.01,0.00,22.0,22.4,00.0,30.6,23.8,02.3,0002.5,0004.83,0009.25,0004.51
2022-12-23 11:12:00,,0830.4,4.99,0.00,22.0,21.8,00.0,30.6,23.7,02.3,0002.2,0004.83,0008.97,0004.52
2022-12-23 11:13:00,,0830.4,5.04,0.00,21.9,21.1,00.0,30.6,23.5,02.3,0002.8,0004.84,0009.03,0004.51
2022-12-23 11:14:00,,0830.5,5.01,0.00,21.8,20.5,00.0,30.6,23.3,02.3,0002.3,0004.84,0009.09,0004.50
2022-12-23 11:15:00,,0830.5,4.95,0.00,21.8,20.2,00.0,30.6,23.2,02.3,0002.4,0004.86,0008.81,0004.50
2022-12-23 11:16:00,,0830.5,5.02,0.00,21.8,20.9,00.0,30.6,23.4,02.3,0002.7,0004.88,0008.87,0004.51
2022-12-23 11:17:00,,0830.5,5.02,0.00,21.9,21.8,00.0,30.6,23.6,02.3,0002.7,0004.89,0008.86,0004.51
2022-12-23 11:18:00,,0830.4,4.96,0.00,22.0,22.4,00.0,30.6,23.8,02.3,0002.5,0004.89,0008.82,0004.51
2022-12-23 11:19:00,,0830.3,5.03,0.00,22.0,22.1,00.0,30.6,23.8,02.3,0002.7,0004.87,0008.81,0004.50
2022-12-23 11:20:00,,0830.4,4.95,0.00,22.0,21.3,00.0,30.7,23.6,02.3,0002.5,0004.86,0008.80,0004.49
2022-12-23 11:21:00,,0830.4,5.03,0.00,21.9,20.7,00.0,30.7,23.4,02.3,0002.4,0004.84,0008.61,0004.47
2022-12-23 11:22:00,,0830.4,5.03,0.00,21.8,20.4,00.0,30.7,23.3,02.3,0002.1,0004.84,0008.37,0004.46
2022-12-23 11:23:00,,0830.4,4.97,0.00,21.9,21.1,00.0,30.6,23.5,02.3,0001.9,0004.81,0008.28,0004.42
2022-12-23 11:24:00,,0830.4,5.00,0.00,21.9,21.9,00.0,30.6,23.7,02.3,0000.9,0004.77,0008.20,0004.41
2022-12-23 11:25:00,,0830.4,5.03,0.00,22.0,22.2,00.0,30.6,23.8,02.3,0000.8,0004.76,0008.12,0004.40
2022-12-23 11:26:00,,0830.5,4.97,0.00,22.0,21.5,00.0,30.7,23.7,02.3,0001.3,0004.74,0007.84,0004.39
2022-12-23 11:27:00,,0830.4,5.02,0.00,21.9,20.9,00.0,30.7,23.5,02.3,0001.8,0004.74,0007.83,0004.39
2022-12-23 11:28:00,,0830.4,5.02,0.00,21.9,20.3,00.0,30.7,23.3,02.3,0001.4,0004.74,0008.10,0004.38
2022-12-23 11:29:00,,0830.4,5.00,0.00,21.8,20.0,00.0,30.7,23.2,02.3,0000.5,0004.71,0008.45,0004.35
2022-12-23 11:30:00,,0830.4,4.97,0.00,21.8,20.9,00.0,30.6,23.4,02.4,0000.1,0004.68,0008.64,0004.32
2022-12-23 11:31:00,,0830.4,5.03,0.00,21.9,21.8,00.0,30.6,23.6,02.4,0000.3,0004.65,0008.65,0004.29
2022-12-23 11:32:00,,0830.4,4.99,0.00,22.0,22.4,00.0,30.6,23.8,02.4,0000.8,0004.64,0008.66,0004.26
2022-12-23 11:33:00,,0830.4,5.00,0.00,22.0,22.0,00.0,30.7,23.8,02.4,0000.4,0004.62,0008.85,0004.24
2022-12-23 11:34:00,,0830.5,5.02,0.00,22.0,21.3,00.0,30.7,23.6,02.4,0000.7,0004.61,0009.17,0004.23
2022-12-23 11:35:00,,0830.5,5.00,0.00,21.9,20.7,00.0,30.7,23.4,02.4,0000.0,0004.62,0009.70,0004.22
2022-12-23 11:36:00,,0830.4,4.96,0.00,21.8,20.2,00.0,30.7,23.3,02.4,0002.0,0004.63,0009.82,0004.21
2022-12-23 11:37:00,,0830.4,5.05,0.00,21.8,20.6,00.0,30.6,23.3,02.4,0003.0,0004.61,0010.46,0004.18
2022-12-23 11:38:00,,0830.5,5.02,0.00,21.9,21.5,00.0,30.6,23.6,02.3,0001.4,0004.60,0010.55,0004.16
2022-12-23 11:39:00,,0830.6,4.97,0.00,22.0,22.2,00.0,30.6,23.8,02.3,0001.4,0004.59,0010.47,0004.14
2022-12-23 11:40:00,,0830.6,5.02,0.00,22.0,22.3,00.0,30.7,23.9,02.2,0002.0,0004.66,0010.36,0004.18
2022-12-23 11:41:00,,0830.6,4.95,0.00,22.0,21.6,00.0,30.7,23.7,02.3,0003.2,0004.82,0010.47,0004.31
2022-12-23 11:42:00,,0830.6,5.03,0.00,21.9,21.0,00.0,30.7,23.5,02.3,0003.1,0005.02,0010.70,0004.49
2022-12-23 11:43:00,,0830.6,5.02,0.00,21.9,20.3,00.0,30.7,23.3,02.3,0003.1,0005.22,0010.99,0004.67
2022-12-23 11:44:00,,0830.6,5.00,0.00,21.8,20.0,00.0,30.7,23.2,02.3,0002.9,0005.43,0011.19,0004.86
2022-12-23 11:45:00,,0830.6,4.96,0.00,21.8,20.9,00.0,30.6,23.4,02.3,0003.4,0005.66,0011.19,0005.05
2022-12-23 11:46:00,,0830.6,5.03,0.00,21.9,21.6,00.0,30.6,23.6,02.3,0003.3,0005.86,0010.93,0005.25
2022-12-23 11:47:00,,0830.5,4.98,0.00,22.0,22.1,00.0,30.6,23.7,02.3,0003.6,0006.06,0011.05,0005.47
2022-12-23 11:48:00,,0830.6,5.01,0.00,22.0,21.6,00.0,30.7,23.7,02.3,0003.7,0006.28,0010.70,0005.69
2022-12-23 11:49:00,,0830.7,5.04,0.00,21.9,20.9,00.0,30.7,23.5,02.3,0003.8,0006.50,0010.80,0005.91
2022-12-23 11:50:00,,0830.6,4.99,0.00,21.8,20.3,00.0,30.7,23.3,02.3,0003.8,0006.70,0011.01,0006.13
2022-12-23 11:51:00,,0830.6,4.97,0.00,21.8,20.2,00.0,30.7,23.2,02.3,0003.9,0006.85,0011.03,0006.28
2022-12-23 11:52:00,,0830.6,5.02,0.00,21.8,21.1,00.0,30.6,23.4,02.3,0003.6,0006.89,0010.84,0006.36
2022-12-23 11:53:00,,0830.8,5.02,0.00,21.9,21.9,00.0,30.6,23.6,02.3,0003.7,0006.92,0010.84,0006.39
2022-12-23 11:54:00,,0830.8,4.96,0.00,22.0,22.3,00.0,30.6,23.8,02.3,0003.6,0006.89,0010.71,0006.40
2022-12-23 11:55:00,,0830.6,5.03,0.00,22.0,21.8,00.0,30.7,23.7,02.3,0003.5,0006.85,0010.52,0006.39
2022-12-23 11:56:00,,0830.6,4.99,0.00,21.9,21.0,00.0,30.7,23.5,02.3,0003.3,0006.83,0010.62,0006.38
2022-12-23 11:57:00,,0830.7,4.96,0.00,21.8,20.4,00.0,30.7,23.3,02.3,0003.3,0006.83,0010.93,0006.36
2022-12-23 11:58:00,,0830.8,5.01,0.00,21.8,19.9,00.0,30.7,23.1,02.3,0003.1,0006.82,0010.84,0006.32
2022-12-23 11:59:00,,0830.8,5.03,0.00,21.7,20.4,00.0,30.6,23.2,02.3,0003.1,0006.77,0010.76,0006.26
